USA 164 (MILSTAR-2 3)

Last updated on Tue Sep 22 2026 00:03:10 GMT+0000 (Coordinated Universal Time)

1 27168U 02001A 26263.99384072 .00000099 00000+0 00000+0 0 9994 2 27168 11.2947 21.3008 0098256 10.4112 344.8805 1.00271873 33910
UTC large
Height (km)
Speed (km/s)
/
Latitude / Longitude
Inclination (degrees)
Orbital Period (minutes)
Azimuth
Elevation
Range (km)
Doppler Factor

Next 0 passes for location: London (51.5072 / 0.1276)

No passes found over London.
USA 164 (MILSTAR-2 3)